CPA115 VHHH-NZAA

Flight info

Callsign CPA115
Flight time N/A
Altitude 35000
Route DALOL V642 NOMAN A461 AVMUP W16 MIA B462 TAC R337 ISGOG DCT 08N135E 05N140E 01N145E DCT PIKOK DCT MOE DCT 05S151E 0821S15500E 10S157E 1400S15923E 15S160E DCT BODEG DCT 24S165E DCT OSVAR DCT 31S170E DCT ELNOS
Aircraft A333/H-SDE3GHIJ2J3J5M1RVWXY/LB2D1

Departure

Time 2026-05-03 20:29
Airport Hong Kong International Airport (VHHH)

Arrival

Time N/A
Airport Auckland International Airport (NZAA)
Time Latitude Longitude Altitude Speed Heading
2026-05-03 20:16 22.30926 113.92645 36 ft 0 kts 296°
2026-05-03 20:20 22.30925 113.92648 36 ft 3 kts 296°
2026-05-03 20:20 22.30913 113.92674 32 ft 4 kts 296°
2026-05-03 20:20 22.30902 113.92699 33 ft 2 kts 296°
2026-05-03 20:20 22.30893 113.92722 36 ft 4 kts 273°
2026-05-03 20:21 22.30899 113.92746 31 ft 4 kts 221°
2026-05-03 20:21 22.30921 113.92761 34 ft 4 kts 206°
2026-05-03 20:21 22.30943 113.92773 32 ft 2 kts 206°
2026-05-03 20:21 22.30944 113.92773 32 ft 0 kts 206°
2026-05-03 20:23 22.30939 113.92770 36 ft 4 kts 206°
2026-05-03 20:24 22.30874 113.92736 36 ft 16 kts 207°
2026-05-03 20:24 22.30805 113.92613 36 ft 26 kts 251°
2026-05-03 20:24 22.30734 113.92394 36 ft 33 kts 251°
2026-05-03 20:24 22.30662 113.92169 36 ft 31 kts 251°
2026-05-03 20:25 22.30592 113.91951 36 ft 30 kts 250°
2026-05-03 20:25 22.30525 113.91741 36 ft 29 kts 251°
2026-05-03 20:25 22.30458 113.91539 36 ft 28 kts 251°
2026-05-03 20:25 22.30395 113.91344 36 ft 27 kts 251°
2026-05-03 20:26 22.30333 113.91150 36 ft 30 kts 250°
2026-05-03 20:26 22.30260 113.90922 36 ft 32 kts 250°
2026-05-03 20:26 22.30188 113.90699 36 ft 31 kts 251°
2026-05-03 20:26 22.30122 113.90495 36 ft 26 kts 250°
2026-05-03 20:27 22.30063 113.90311 36 ft 25 kts 251°
2026-05-03 20:27 22.30006 113.90134 36 ft 25 kts 250°
2026-05-03 20:27 22.29950 113.89963 36 ft 24 kts 251°
2026-05-03 20:27 22.29897 113.89796 36 ft 23 kts 251°
2026-05-03 20:28 22.29808 113.89746 36 ft 15 kts 160°
2026-05-03 20:28 22.29708 113.89781 35 ft 15 kts 162°
2026-05-03 20:28 22.29650 113.89869 33 ft 15 kts 91°
2026-05-03 20:28 22.29676 113.89974 34 ft 17 kts 72°
2026-05-03 20:29 22.29762 113.90245 34 ft 68 kts 70°
2026-05-03 20:29 22.29983 113.90927 35 ft 126 kts 70°
2026-05-03 20:29 22.30338 113.92033 50 ft 180 kts 68°
2026-05-03 20:29 22.30728 113.93319 780 ft 184 kts 70°
2026-05-03 20:30 22.31122 113.94645 1674 ft 190 kts 69°
2026-05-03 20:30 22.31552 113.96044 2264 ft 198 kts 68°
2026-05-03 20:30 22.32042 113.97497 2596 ft 212 kts 67°
2026-05-03 20:30 22.32421 113.99093 2752 ft 235 kts 83°
2026-05-03 20:31 22.32159 114.00900 2928 ft 257 kts 115°
2026-05-03 20:31 22.30936 114.02351 3230 ft 269 kts 146°
2026-05-03 20:31 22.29408 114.03540 3671 ft 274 kts 133°
2026-05-03 20:31 22.28337 114.05263 4120 ft 280 kts 122°
2026-05-03 20:32 22.27327 114.07051 4740 ft 279 kts 123°
2026-05-03 20:32 22.26286 114.08819 5269 ft 280 kts 124°
2026-05-03 20:32 22.25193 114.10572 5752 ft 284 kts 126°
2026-05-03 20:32 22.24043 114.12339 6186 ft 290 kts 127°
2026-05-03 20:33 22.22858 114.14116 6678 ft 293 kts 128°
2026-05-03 20:33 22.21651 114.15905 7162 ft 296 kts 128°
2026-05-03 20:33 22.20427 114.17706 7671 ft 299 kts 129°
2026-05-03 20:33 22.19187 114.19524 8169 ft 302 kts 129°
2026-05-03 20:34 22.17930 114.21361 8695 ft 306 kts 129°
2026-05-03 20:34 22.16658 114.23219 9203 ft 309 kts 129°
2026-05-03 20:34 22.15372 114.25095 9736 ft 312 kts 129°
2026-05-03 20:34 22.14078 114.26984 10188 ft 316 kts 129°
2026-05-03 20:35 22.12743 114.28927 10426 ft 329 kts 129°
2026-05-03 20:35 22.11352 114.30950 10628 ft 342 kts 129°
2026-05-03 20:35 22.09907 114.33053 10830 ft 355 kts 129°
2026-05-03 20:35 22.08409 114.35233 11046 ft 367 kts 129°
2026-05-03 20:36 22.06886 114.37449 11232 ft 378 kts 129°
2026-05-03 20:36 22.05298 114.39759 11431 ft 389 kts 129°
2026-05-03 20:36 22.03668 114.42130 11668 ft 397 kts 129°
2026-05-03 20:36 22.02013 114.44537 12012 ft 402 kts 129°
2026-05-03 20:37 22.00345 114.46962 12420 ft 404 kts 129°
2026-05-03 20:37 21.98669 114.49398 12860 ft 405 kts 129°
2026-05-03 20:37 21.96984 114.51845 13283 ft 407 kts 129°
2026-05-03 20:37 21.95288 114.54307 13689 ft 410 kts 129°
2026-05-03 20:38 21.93584 114.56777 14060 ft 412 kts 129°
2026-05-03 20:38 21.91871 114.59260 14411 ft 414 kts 129°
2026-05-03 20:38 21.90143 114.61764 14749 ft 417 kts 129°
2026-05-03 20:38 21.88409 114.64275 15070 ft 420 kts 129°
2026-05-03 20:39 21.86661 114.66804 15398 ft 422 kts 129°
2026-05-03 20:39 21.84902 114.69350 15758 ft 425 kts 129°
2026-05-03 20:39 21.83136 114.71904 16101 ft 427 kts 130°
2026-05-03 20:39 21.81356 114.74476 16437 ft 430 kts 130°
2026-05-03 20:40 21.79564 114.77066 16774 ft 432 kts 130°
2026-05-03 20:40 21.77764 114.79665 17119 ft 434 kts 130°
2026-05-03 20:40 21.75977 114.82245 17473 ft 435 kts 129°
2026-05-03 20:40 21.74163 114.84859 17824 ft 437 kts 130°
2026-05-03 20:41 21.72325 114.87479 18117 ft 440 kts 130°
2026-05-03 20:41 21.70469 114.90103 18391 ft 442 kts 130°
2026-05-03 20:41 21.68597 114.92740 18661 ft 444 kts 130°
2026-05-03 20:41 21.66718 114.95386 18936 ft 446 kts 130°
2026-05-03 20:42 21.64830 114.98045 19195 ft 448 kts 130°
2026-05-03 20:42 21.62936 115.00712 19464 ft 450 kts 130°
2026-05-03 20:42 21.61033 115.03391 19724 ft 452 kts 130°
2026-05-03 20:42 21.59124 115.06081 19975 ft 453 kts 130°
2026-05-03 20:43 21.57207 115.08781 20228 ft 456 kts 130°
2026-05-03 20:43 21.55280 115.11493 20480 ft 457 kts 130°
2026-05-03 20:43 21.53345 115.14216 20711 ft 459 kts 130°
2026-05-03 20:43 21.51403 115.16948 20950 ft 461 kts 131°
2026-05-03 20:44 21.49450 115.19694 21188 ft 463 kts 131°
2026-05-03 20:44 21.47491 115.22448 21426 ft 465 kts 131°
2026-05-03 20:44 21.45522 115.25214 21655 ft 467 kts 131°
2026-05-03 20:44 21.43544 115.27992 21901 ft 469 kts 131°
2026-05-03 20:45 21.41557 115.30781 22131 ft 471 kts 131°
2026-05-03 20:45 21.39562 115.33580 22358 ft 473 kts 131°
2026-05-03 20:45 21.37556 115.36391 22612 ft 474 kts 131°
2026-05-03 20:45 21.35554 115.39198 22909 ft 474 kts 131°
2026-05-03 20:46 21.34224 115.41061 23054 ft 476 kts 131°
2026-05-03 20:46 21.32207 115.43886 23273 ft 478 kts 131°
2026-05-03 20:46 21.29524 115.47640 23560 ft 480 kts 131°
2026-05-03 20:46 21.28146 115.49566 23680 ft 482 kts 131°
2026-05-03 20:47 21.25442 115.53347 23952 ft 484 kts 131°
2026-05-03 20:47 21.23392 115.56212 24145 ft 485 kts 131°
2026-05-03 20:47 21.22002 115.58153 24279 ft 486 kts 131°
2026-05-03 20:47 21.19940 115.61030 24485 ft 487 kts 131°
2026-05-03 20:48 21.17200 115.64853 24754 ft 489 kts 131°
2026-05-03 20:48 21.15797 115.66810 24891 ft 490 kts 131°
2026-05-03 20:48 21.13717 115.69709 25085 ft 491 kts 131°
2026-05-03 20:48 21.11631 115.72615 25282 ft 493 kts 131°
2026-05-03 20:49 21.09539 115.75527 25495 ft 494 kts 131°
2026-05-03 20:49 21.07440 115.78449 25684 ft 496 kts 131°
2026-05-03 20:49 21.05331 115.81382 25882 ft 497 kts 131°
2026-05-03 20:49 21.03220 115.84316 26091 ft 498 kts 131°
2026-05-03 20:50 21.01099 115.87264 26278 ft 500 kts 131°
2026-05-03 20:50 20.98976 115.90211 26448 ft 502 kts 131°
2026-05-03 20:50 20.96841 115.93175 26593 ft 504 kts 131°
2026-05-03 20:50 20.94724 115.96110 26803 ft 505 kts 131°
2026-05-03 20:51 20.92575 115.99091 27028 ft 506 kts 131°
2026-05-03 20:51 20.90420 116.02078 27230 ft 507 kts 131°
2026-05-03 20:51 20.88261 116.05068 27421 ft 509 kts 131°
2026-05-03 20:51 20.86009 116.07988 27601 ft 507 kts 137°
2026-05-03 20:52 20.83449 116.10561 27792 ft 503 kts 146°
2026-05-03 20:52 20.80631 116.12770 27973 ft 502 kts 149°
2026-05-03 20:52 20.77733 116.14852 28173 ft 502 kts 151°
2026-05-03 20:52 20.74779 116.16875 28348 ft 503 kts 152°
2026-05-03 20:53 20.71810 116.18863 28534 ft 504 kts 152°
2026-05-03 20:53 20.68831 116.20847 28716 ft 505 kts 152°
2026-05-03 20:53 20.65847 116.22839 28987 ft 505 kts 152°
2026-05-03 20:53 20.62874 116.24831 29270 ft 504 kts 152°
2026-05-03 20:54 20.59915 116.26823 29551 ft 503 kts 152°
2026-05-03 20:54 20.54021 116.30801 29924 ft 505 kts 152°
2026-05-03 20:54 20.51055 116.32806 30167 ft 504 kts 152°
2026-05-03 20:55 20.48094 116.34808 30396 ft 503 kts 152°
2026-05-03 20:55 20.45137 116.36805 30626 ft 503 kts 152°
2026-05-03 20:55 20.42183 116.38800 30844 ft 502 kts 152°
2026-05-03 20:55 20.39237 116.40787 31061 ft 501 kts 152°
2026-05-03 20:56 20.36291 116.42772 31279 ft 501 kts 152°
2026-05-03 20:56 20.33352 116.44752 31498 ft 500 kts 152°
2026-05-03 20:56 20.30408 116.46735 31696 ft 500 kts 152°
2026-05-03 20:56 20.27470 116.48712 31854 ft 501 kts 152°
2026-05-03 20:57 20.24523 116.50694 32022 ft 501 kts 152°
2026-05-03 20:57 20.21578 116.52674 32242 ft 500 kts 152°
2026-05-03 20:57 20.18639 116.54650 32474 ft 499 kts 152°
2026-05-03 20:57 20.15709 116.56620 32684 ft 498 kts 152°
2026-05-03 20:58 20.12785 116.58584 32988 ft 495 kts 152°
2026-05-03 20:58 20.09875 116.60539 33258 ft 493 kts 152°
2026-05-03 20:58 20.06978 116.62484 33473 ft 492 kts 152°
2026-05-03 20:58 20.04082 116.64425 33679 ft 492 kts 152°
2026-05-03 20:59 20.01278 116.66442 33863 ft 494 kts 146°
2026-05-03 20:59 19.98686 116.68853 34045 ft 498 kts 139°
2026-05-03 20:59 19.96253 116.71469 34189 ft 498 kts 137°
2026-05-03 20:59 19.93872 116.74159 34327 ft 499 kts 136°
2026-05-03 21:00 19.91531 116.76876 34460 ft 499 kts 135°
2026-05-03 21:00 19.89954 116.78724 34554 ft 500 kts 135°
2026-05-03 21:00 19.86864 116.82350 34737 ft 499 kts 135°
2026-05-03 21:00 19.84530 116.85082 34869 ft 499 kts 136°
2026-05-03 21:01 19.79828 116.90551 34945 ft 503 kts 136°
2026-05-03 21:01 19.75089 116.96034 34944 ft 504 kts 136°
2026-05-03 21:02 19.70347 117.01514 34941 ft 504 kts 136°
2026-05-03 21:02 19.65603 117.06991 34941 ft 504 kts 136°
2026-05-03 21:03 19.60853 117.12470 34938 ft 504 kts 136°
2026-05-03 21:03 19.56103 117.17944 34935 ft 505 kts 135°
2026-05-03 21:04 19.51356 117.23410 34937 ft 503 kts 136°
2026-05-03 21:04 19.46613 117.28866 34940 ft 503 kts 136°
2026-05-03 21:05 19.41876 117.34310 34941 ft 503 kts 136°
2026-05-03 21:05 19.37167 117.39717 34938 ft 503 kts 136°
2026-05-03 21:06 19.32422 117.45159 34937 ft 503 kts 136°
2026-05-03 21:06 19.27647 117.50632 34938 ft 502 kts 136°
2026-05-03 21:07 19.22943 117.56019 34938 ft 501 kts 136°
2026-05-03 21:07 19.18180 117.61468 34930 ft 501 kts 135°
2026-05-03 21:08 19.13475 117.66845 34942 ft 501 kts 135°
2026-05-03 21:08 19.08743 117.72249 34933 ft 501 kts 135°
2026-05-03 21:09 19.04009 117.77650 34941 ft 501 kts 135°
2026-05-03 21:09 18.99275 117.83047 34929 ft 501 kts 135°
2026-05-03 21:10 18.94534 117.88444 34944 ft 501 kts 135°
2026-05-03 21:10 18.89793 117.93838 34929 ft 501 kts 136°
2026-05-03 21:11 18.85052 117.99227 34928 ft 501 kts 135°
2026-05-03 21:11 18.80312 118.04610 34930 ft 501 kts 135°
2026-05-03 21:12 18.75602 118.09955 34935 ft 500 kts 135°
2026-05-03 21:12 18.70861 118.15331 34935 ft 500 kts 135°
2026-05-03 21:13 18.66122 118.20698 34933 ft 500 kts 135°
2026-05-03 21:13 18.61378 118.26067 34932 ft 500 kts 136°
2026-05-03 21:14 18.56635 118.31430 34936 ft 500 kts 136°
2026-05-03 21:14 18.51891 118.36789 34935 ft 500 kts 136°
2026-05-03 21:15 18.47150 118.42141 34930 ft 500 kts 135°
2026-05-03 21:15 18.42401 118.47497 34932 ft 500 kts 136°
2026-05-03 21:16 18.37651 118.52849 34927 ft 500 kts 136°
2026-05-03 21:16 18.32900 118.58197 34927 ft 500 kts 136°
2026-05-03 21:17 18.28951 118.62640 34926 ft 500 kts 136°
2026-05-03 21:17 18.23427 118.68849 34921 ft 500 kts 136°
2026-05-03 21:18 18.18666 118.74195 34925 ft 500 kts 136°
2026-05-03 21:18 18.13907 118.79534 34925 ft 500 kts 136°
2026-05-03 21:19 18.09150 118.84867 34919 ft 500 kts 136°
2026-05-03 21:19 18.04388 118.90201 34922 ft 500 kts 136°
2026-05-03 21:20 17.99446 118.95320 34919 ft 496 kts 145°
2026-05-03 21:20 17.93666 118.99201 34920 ft 492 kts 153°
2026-05-03 21:21 17.87727 119.02682 34917 ft 492 kts 154°
2026-05-03 21:21 17.81715 119.06115 34914 ft 492 kts 154°
2026-05-03 21:22 17.75705 119.09564 34906 ft 492 kts 154°
2026-05-03 21:22 17.69705 119.13029 34914 ft 492 kts 154°
2026-05-03 21:23 17.63703 119.16501 34912 ft 492 kts 154°
2026-05-03 21:23 17.57702 119.19970 34910 ft 492 kts 154°
2026-05-03 21:24 17.51699 119.23438 34912 ft 493 kts 154°
2026-05-03 21:24 17.45696 119.26901 34908 ft 492 kts 154°
2026-05-03 21:25 17.39694 119.30361 34908 ft 493 kts 154°
2026-05-03 21:25 17.33682 119.33825 34909 ft 493 kts 154°
2026-05-03 21:26 17.27673 119.37284 34908 ft 493 kts 154°
2026-05-03 21:26 17.21703 119.40718 34909 ft 493 kts 154°
2026-05-03 21:27 17.15692 119.44174 34908 ft 493 kts 154°
2026-05-03 21:27 17.09681 119.47626 34897 ft 493 kts 154°
2026-05-03 21:28 17.03666 119.51078 34906 ft 494 kts 154°
2026-05-03 21:28 16.97640 119.54534 34905 ft 494 kts 154°
2026-05-03 21:29 16.91609 119.57991 34906 ft 494 kts 154°
2026-05-03 21:29 16.85576 119.61446 34905 ft 494 kts 154°
2026-05-03 21:30 16.79547 119.64896 34908 ft 494 kts 154°
2026-05-03 21:30 16.73515 119.68346 34905 ft 494 kts 154°
2026-05-03 21:31 16.67479 119.71794 34906 ft 495 kts 154°
2026-05-03 21:31 16.61439 119.75243 34906 ft 495 kts 154°
2026-05-03 21:32 16.55404 119.78687 34905 ft 494 kts 154°
2026-05-03 21:32 16.49367 119.82129 34908 ft 494 kts 154°
2026-05-03 21:33 16.43375 119.85544 34911 ft 494 kts 154°
2026-05-03 21:33 16.37340 119.88980 34912 ft 494 kts 154°
2026-05-03 21:34 16.31298 119.92418 34914 ft 495 kts 154°
2026-05-03 21:34 16.25258 119.95852 34917 ft 495 kts 154°
2026-05-03 21:35 16.20239 119.98704 34916 ft 494 kts 154°
2026-05-03 21:35 16.13180 120.02712 34917 ft 495 kts 154°
2026-05-03 21:36 16.07138 120.06140 34923 ft 495 kts 154°
2026-05-03 21:36 16.02119 120.08986 34922 ft 494 kts 154°
2026-05-03 21:37 15.96081 120.12407 34923 ft 494 kts 154°
2026-05-03 21:37 15.90032 120.15831 34928 ft 495 kts 154°
2026-05-03 21:38 15.83986 120.19254 34928 ft 495 kts 154°
2026-05-03 21:38 15.77937 120.22675 34937 ft 495 kts 154°
2026-05-03 21:39 15.71882 120.26096 34936 ft 495 kts 154°
2026-05-03 21:39 15.65827 120.29516 34943 ft 495 kts 154°
2026-05-03 21:40 15.59782 120.32928 34942 ft 495 kts 154°
2026-05-03 21:40 15.53733 120.36339 34946 ft 495 kts 154°
2026-05-03 21:41 15.47684 120.39748 34951 ft 495 kts 154°
2026-05-03 21:41 15.41673 120.43134 34952 ft 495 kts 154°
2026-05-03 21:42 15.35619 120.46540 34959 ft 495 kts 154°
2026-05-03 21:42 15.29563 120.49946 34964 ft 495 kts 154°
2026-05-03 21:43 15.23513 120.53346 34966 ft 495 kts 154°
2026-05-03 21:43 15.17487 120.56801 34966 ft 496 kts 151°
2026-05-03 21:44 15.11678 120.60664 34966 ft 497 kts 148°
2026-05-03 21:44 15.05950 120.64661 34958 ft 496 kts 148°
2026-05-03 21:45 15.00221 120.68624 34950 ft 495 kts 148°
2026-05-03 21:45 14.94477 120.72547 34940 ft 495 kts 149°
2026-05-03 21:46 14.88724 120.76455 34934 ft 495 kts 149°
2026-05-03 21:46 14.82972 120.80358 34933 ft 495 kts 149°
2026-05-03 21:47 14.77262 120.84233 34934 ft 495 kts 149°
2026-05-03 21:47 14.71513 120.88133 34935 ft 494 kts 148°
2026-05-03 21:48 14.65772 120.92026 34929 ft 493 kts 149°
2026-05-03 21:48 14.60042 120.95907 34939 ft 492 kts 148°
2026-05-03 21:49 14.54315 120.99784 34936 ft 492 kts 148°
2026-05-03 21:49 14.49113 121.04384 34937 ft 495 kts 134°
2026-05-03 21:50 14.44571 121.09745 34940 ft 497 kts 131°
2026-05-03 21:50 14.40168 121.15235 34939 ft 497 kts 131°
2026-05-03 21:51 14.35775 121.20730 34940 ft 495 kts 131°
2026-05-03 21:51 14.31369 121.26200 34934 ft 495 kts 131°
2026-05-03 21:52 14.26993 121.31608 34942 ft 494 kts 131°
2026-05-03 21:52 14.22559 121.37077 34939 ft 494 kts 131°
2026-05-03 21:53 14.18183 121.42472 34944 ft 494 kts 131°
2026-05-03 21:53 14.13774 121.47906 34935 ft 494 kts 131°
2026-05-03 21:54 14.09365 121.53336 34934 ft 494 kts 132°
2026-05-03 21:54 14.04966 121.58749 34936 ft 492 kts 132°
2026-05-03 21:55 14.00571 121.64156 34924 ft 491 kts 132°
2026-05-03 21:55 13.96185 121.69547 34923 ft 491 kts 132°
2026-05-03 21:56 13.91804 121.74928 34928 ft 491 kts 132°
2026-05-03 21:56 13.87420 121.80310 34922 ft 490 kts 132°
2026-05-03 21:57 13.83065 121.85653 34926 ft 490 kts 132°
2026-05-03 21:57 13.78684 121.91023 34923 ft 489 kts 132°
2026-05-03 21:58 13.74305 121.96388 34925 ft 490 kts 132°
2026-05-03 21:58 13.69926 122.01749 34924 ft 490 kts 132°
2026-05-03 21:59 13.65544 122.07110 34923 ft 490 kts 132°
2026-05-03 21:59 13.61167 122.12463 34920 ft 488 kts 131°
2026-05-03 22:00 13.56800 122.17800 34922 ft 487 kts 132°
2026-05-03 22:00 13.52436 122.23131 34927 ft 487 kts 132°
2026-05-03 22:01 13.48096 122.28427 34927 ft 487 kts 132°
2026-05-03 22:01 13.43728 122.33755 34918 ft 487 kts 132°
2026-05-03 22:02 13.39352 122.39090 34921 ft 489 kts 131°
2026-05-03 22:02 13.34961 122.44438 34917 ft 490 kts 131°
2026-05-03 22:03 13.30562 122.49794 34918 ft 490 kts 131°
2026-05-03 22:03 13.26167 122.55142 34920 ft 489 kts 131°
2026-05-03 22:04 13.21798 122.60455 34916 ft 486 kts 131°
2026-05-03 22:04 13.17443 122.65747 34920 ft 485 kts 131°
2026-05-03 22:05 13.13083 122.71043 34921 ft 485 kts 131°
2026-05-03 22:05 13.08726 122.76331 34918 ft 485 kts 131°
2026-05-03 22:06 13.04364 122.81622 34914 ft 486 kts 131°
2026-05-03 22:06 12.99999 122.86913 34914 ft 486 kts 131°
2026-05-03 22:07 12.95637 122.92199 34924 ft 485 kts 131°
2026-05-03 22:07 12.91273 122.97483 34919 ft 485 kts 131°
2026-05-03 22:08 12.86911 123.02762 34921 ft 485 kts 131°
2026-05-03 22:08 12.82546 123.08041 34914 ft 485 kts 131°
2026-05-03 22:09 12.78211 123.13282 34921 ft 485 kts 131°
2026-05-03 22:10 12.71662 123.21191 34920 ft 485 kts 131°
2026-05-03 22:10 12.67293 123.26465 34918 ft 485 kts 131°
2026-05-03 22:11 12.62926 123.31733 34920 ft 485 kts 131°
2026-05-03 22:11 12.58556 123.37001 34917 ft 485 kts 131°
2026-05-03 22:12 12.54185 123.42267 34919 ft 485 kts 131°
2026-05-03 22:12 12.49824 123.47520 34923 ft 483 kts 131°
2026-05-03 22:13 12.45468 123.52763 34919 ft 483 kts 131°
2026-05-03 22:13 12.41113 123.58000 34919 ft 483 kts 131°
2026-05-03 22:14 12.36757 123.63243 34917 ft 483 kts 131°
2026-05-03 22:14 12.32453 123.68526 34917 ft 483 kts 130°
2026-05-03 22:15 12.28175 123.73826 34915 ft 483 kts 130°
2026-05-03 22:15 12.23899 123.79119 34914 ft 483 kts 130°
2026-05-03 22:16 12.19616 123.84407 34918 ft 483 kts 130°
2026-05-03 22:16 12.15360 123.89654 34916 ft 482 kts 130°
2026-05-03 22:17 12.11082 123.94924 34914 ft 481 kts 130°
2026-05-03 22:17 12.06801 124.00196 34911 ft 482 kts 130°
2026-05-03 22:18 12.02515 124.05471 34917 ft 483 kts 130°
2026-05-03 22:18 11.98230 124.10743 34914 ft 483 kts 130°
2026-05-03 22:19 11.93938 124.16020 34903 ft 483 kts 130°
2026-05-03 22:19 11.89646 124.21294 34908 ft 483 kts 130°
2026-05-03 22:20 11.85357 124.26563 34912 ft 482 kts 130°
2026-05-03 22:20 11.81092 124.31798 34908 ft 482 kts 130°
2026-05-03 22:21 11.76798 124.37067 34917 ft 483 kts 130°
2026-05-03 22:21 11.72491 124.42348 34906 ft 483 kts 130°
2026-05-03 22:22 11.68190 124.47617 34909 ft 483 kts 130°
2026-05-03 22:22 11.63883 124.52894 34905 ft 484 kts 131°
2026-05-03 22:23 11.59574 124.58170 34917 ft 484 kts 130°
2026-05-03 22:23 11.55262 124.63446 34904 ft 484 kts 130°
2026-05-03 22:24 11.50947 124.68723 34906 ft 484 kts 130°
2026-05-03 22:24 11.46633 124.73996 34912 ft 484 kts 130°
2026-05-03 22:25 11.43043 124.78383 34912 ft 485 kts 130°
2026-05-03 22:25 11.38712 124.83671 34924 ft 486 kts 130°
2026-05-03 22:26 11.34381 124.88955 34916 ft 486 kts 130°
2026-05-03 22:26 11.30049 124.94241 34915 ft 486 kts 130°
2026-05-03 22:27 11.25716 124.99527 34908 ft 486 kts 129°
2026-05-03 22:27 11.22203 125.05378 34924 ft 486 kts 115°
2026-05-03 22:28 11.19557 125.11724 34910 ft 487 kts 112°
2026-05-03 22:28 11.17085 125.18145 34924 ft 487 kts 111°
2026-05-03 22:29 11.14619 125.24577 34914 ft 487 kts 112°
2026-05-03 22:29 11.12133 125.30992 34910 ft 487 kts 112°
2026-05-03 22:30 11.09629 125.37409 34927 ft 487 kts 112°
2026-05-03 22:30 11.07123 125.43819 34914 ft 487 kts 112°
2026-05-03 22:31 11.04617 125.50226 34920 ft 487 kts 112°
2026-05-03 22:31 11.02110 125.56633 34904 ft 488 kts 112°
2026-05-03 22:32 10.99599 125.63046 34920 ft 488 kts 112°
2026-05-03 22:32 10.97086 125.69458 34911 ft 488 kts 112°
2026-05-03 22:33 10.94571 125.75873 34914 ft 488 kts 112°
2026-05-03 22:33 10.92070 125.82249 34923 ft 488 kts 112°
2026-05-03 22:34 10.89550 125.88665 34904 ft 489 kts 112°
2026-05-03 22:34 10.87025 125.95090 34926 ft 489 kts 112°
2026-05-03 22:35 10.84501 126.01506 34913 ft 489 kts 112°
2026-05-03 22:35 10.81975 126.07926 34909 ft 488 kts 112°
2026-05-03 22:36 10.79449 126.14340 34922 ft 489 kts 112°
2026-05-03 22:36 10.76921 126.20754 34910 ft 489 kts 112°
2026-05-03 22:37 10.74391 126.27171 34920 ft 488 kts 112°
2026-05-03 22:37 10.71869 126.33561 34903 ft 486 kts 112°
2026-05-03 22:38 10.69354 126.39929 34920 ft 485 kts 112°
2026-05-03 22:38 10.66839 126.46294 34920 ft 485 kts 112°
2026-05-03 22:39 10.64324 126.52657 34903 ft 485 kts 112°
2026-05-03 22:39 10.61827 126.58965 34904 ft 484 kts 112°
2026-05-03 22:40 10.59314 126.65313 34905 ft 484 kts 112°
2026-05-03 22:40 10.56804 126.71647 34903 ft 483 kts 112°
2026-05-03 22:41 10.54296 126.77975 34916 ft 482 kts 112°
2026-05-03 22:41 10.51790 126.84291 34917 ft 482 kts 112°
2026-05-03 22:42 10.49283 126.90604 34918 ft 482 kts 112°
2026-05-03 22:42 10.46776 126.96915 34917 ft 482 kts 112°
2026-05-03 22:43 10.44267 127.03227 34915 ft 481 kts 112°
2026-05-03 22:43 10.41766 127.09516 34916 ft 479 kts 112°
2026-05-03 22:44 10.39267 127.15794 34915 ft 480 kts 112°
2026-05-03 22:44 10.36766 127.22072 34914 ft 479 kts 112°
2026-05-03 22:45 10.34261 127.28359 34904 ft 478 kts 112°
2026-05-03 22:45 10.31762 127.34623 34907 ft 478 kts 112°
2026-05-03 22:46 10.29267 127.40875 34900 ft 478 kts 112°
2026-05-03 22:46 10.26766 127.47138 34915 ft 478 kts 112°
2026-05-03 22:47 10.24267 127.53394 34918 ft 478 kts 112°
2026-05-03 22:47 10.21781 127.59610 34915 ft 478 kts 112°
2026-05-03 22:48 10.19279 127.65864 34915 ft 478 kts 112°
2026-05-03 22:48 10.16776 127.72116 34912 ft 478 kts 112°
2026-05-03 22:49 10.14272 127.78364 34911 ft 478 kts 112°
2026-05-03 22:49 10.11766 127.84618 34913 ft 479 kts 112°
2026-05-03 22:50 10.09258 127.90872 34911 ft 479 kts 112°
2026-05-03 22:50 10.06745 127.97133 34908 ft 478 kts 112°
2026-05-03 22:51 10.04236 128.03380 34908 ft 478 kts 112°
2026-05-03 22:51 10.01727 128.09623 34908 ft 478 kts 112°
2026-05-03 22:52 9.99216 128.15869 34912 ft 478 kts 112°
2026-05-03 22:52 9.96703 128.22114 34911 ft 478 kts 112°
2026-05-03 22:53 9.94189 128.28359 34913 ft 478 kts 112°
2026-05-03 22:53 9.91673 128.34603 34912 ft 478 kts 111°
2026-05-03 22:54 9.89159 128.40840 34907 ft 479 kts 111°
2026-05-03 22:54 9.86641 128.47085 34908 ft 478 kts 112°
2026-05-03 22:55 9.84137 128.53288 34911 ft 479 kts 112°
2026-05-03 22:55 9.81617 128.59528 34909 ft 478 kts 112°
2026-05-03 22:56 9.79096 128.65768 34912 ft 478 kts 112°
2026-05-03 22:56 9.76573 128.72008 34912 ft 479 kts 112°
2026-05-03 22:57 9.74045 128.78256 34907 ft 479 kts 112°
2026-05-03 22:57 9.71516 128.84504 34908 ft 479 kts 111°
2026-05-03 22:58 9.68989 128.90742 34912 ft 479 kts 112°
2026-05-03 22:58 9.66458 128.96988 34911 ft 479 kts 112°
2026-05-03 22:59 9.63925 129.03236 34910 ft 479 kts 111°
2026-05-03 22:59 9.61392 129.09477 34909 ft 479 kts 111°
2026-05-03 23:00 9.58854 129.15728 34909 ft 479 kts 111°
2026-05-03 23:00 9.56316 129.21976 34911 ft 480 kts 111°
2026-05-03 23:01 9.53790 129.28191 34909 ft 480 kts 112°
2026-05-03 23:01 9.51245 129.34447 34908 ft 480 kts 112°
2026-05-03 23:02 9.48702 129.40697 34909 ft 481 kts 112°
2026-05-03 23:02 9.46153 129.46956 34908 ft 480 kts 111°
2026-05-03 23:03 9.43601 129.53219 34912 ft 481 kts 111°
2026-05-03 23:03 9.41052 129.59473 34910 ft 481 kts 112°
2026-05-03 23:04 9.38501 129.65726 34906 ft 480 kts 112°
2026-05-03 23:04 9.35949 129.71979 34906 ft 481 kts 112°
2026-05-03 23:05 9.33413 129.78189 34910 ft 480 kts 112°
2026-05-03 23:05 9.30857 129.84443 34908 ft 480 kts 112°
2026-05-03 23:06 9.28303 129.90690 34910 ft 481 kts 112°
2026-05-03 23:06 9.25748 129.96937 34908 ft 480 kts 112°
2026-05-03 23:07 9.23702 130.03366 34909 ft 480 kts 105°
2026-05-03 23:07 9.22057 130.09920 34908 ft 480 kts 103°
2026-05-03 23:08 9.20486 130.16484 34907 ft 480 kts 103°
2026-05-03 23:08 9.18912 130.23062 34908 ft 480 kts 103°
2026-05-03 23:09 9.17326 130.29633 34909 ft 481 kts 104°
2026-05-03 23:09 9.15731 130.36207 34910 ft 481 kts 104°
2026-05-03 23:10 9.14144 130.42740 34908 ft 481 kts 104°
2026-05-03 23:10 9.12546 130.49315 34909 ft 481 kts 104°
2026-05-03 23:11 9.10947 130.55891 34909 ft 481 kts 104°
2026-05-03 23:11 9.09617 130.61356 34909 ft 481 kts 104°
2026-05-03 23:12 9.08017 130.67928 34908 ft 481 kts 104°
2026-05-03 23:12 9.06414 130.74504 34909 ft 481 kts 104°
2026-05-03 23:13 9.04810 130.81077 34908 ft 481 kts 104°
2026-05-03 23:13 9.03205 130.87651 34909 ft 481 kts 104°
2026-05-03 23:14 9.01599 130.94227 34909 ft 481 kts 104°
2026-05-03 23:14 8.99990 131.00805 34908 ft 482 kts 104°
2026-05-03 23:15 8.98379 131.07387 34907 ft 482 kts 104°
2026-05-03 23:15 8.96768 131.13968 34905 ft 482 kts 104°
2026-05-03 23:16 8.95153 131.20554 34909 ft 483 kts 104°
2026-05-03 23:16 8.93536 131.27146 34909 ft 483 kts 104°
2026-05-03 23:17 8.91917 131.33738 34910 ft 483 kts 104°
2026-05-03 23:17 8.90298 131.40326 34908 ft 483 kts 104°
2026-05-03 23:18 8.88689 131.46870 34909 ft 482 kts 104°
2026-05-03 23:18 8.87069 131.53451 34907 ft 482 kts 104°
2026-05-03 23:19 8.85438 131.60072 34908 ft 482 kts 104°
2026-05-03 23:19 8.83828 131.66604 34911 ft 482 kts 104°
2026-05-03 23:20 8.82207 131.73176 34910 ft 482 kts 104°
2026-05-03 23:20 8.80584 131.79747 34909 ft 481 kts 104°
2026-05-03 23:21 8.78962 131.86311 34910 ft 481 kts 104°
2026-05-03 23:21 8.77338 131.92878 34910 ft 481 kts 105°
2026-05-03 23:22 8.74902 132.02719 34911 ft 481 kts 105°
2026-05-03 23:22 8.73276 132.09282 34910 ft 481 kts 105°
2026-05-03 23:23 8.71650 132.15838 34910 ft 481 kts 105°
2026-05-03 23:23 8.70022 132.22396 34910 ft 481 kts 105°
2026-05-03 23:24 8.68396 132.28945 34911 ft 480 kts 105°
2026-05-03 23:24 8.66783 132.35433 34911 ft 480 kts 105°
2026-05-03 23:25 8.65155 132.41979 34911 ft 479 kts 105°
2026-05-03 23:25 8.63530 132.48506 34911 ft 479 kts 105°
2026-05-03 23:26 8.61903 132.55039 34912 ft 479 kts 104°
2026-05-03 23:26 8.60276 132.61562 34911 ft 479 kts 104°
2026-05-03 23:27 8.58649 132.68082 34910 ft 478 kts 104°
2026-05-03 23:27 8.57022 132.74599 34909 ft 478 kts 105°
2026-05-03 23:28 8.55395 132.81111 34910 ft 478 kts 104°
2026-05-03 23:28 8.53765 132.87628 34911 ft 478 kts 104°
2026-05-03 23:29 8.52135 132.94142 34912 ft 478 kts 104°
2026-05-03 23:29 8.50504 133.00653 34912 ft 478 kts 104°
2026-05-03 23:30 8.48884 133.07119 34914 ft 478 kts 104°
2026-05-03 23:30 8.47253 133.13621 34914 ft 477 kts 104°
2026-05-03 23:31 8.45620 133.20128 34908 ft 478 kts 104°
2026-05-03 23:31 8.43987 133.26626 34908 ft 477 kts 104°
2026-05-03 23:32 8.42353 133.33126 34910 ft 477 kts 104°
2026-05-03 23:32 8.40719 133.39622 34911 ft 477 kts 104°
2026-05-03 23:33 8.39084 133.46118 34911 ft 477 kts 104°
2026-05-03 23:33 8.37447 133.52612 34911 ft 477 kts 104°
2026-05-03 23:34 8.35811 133.59102 34909 ft 477 kts 104°
2026-05-03 23:34 8.34182 133.65557 34909 ft 477 kts 104°
2026-05-03 23:35 8.32543 133.72048 34908 ft 476 kts 104°
2026-05-03 23:35 8.30906 133.78529 34907 ft 476 kts 104°
2026-05-03 23:36 8.29268 133.85007 34909 ft 476 kts 104°
2026-05-03 23:36 8.27629 133.91482 34909 ft 476 kts 104°
2026-05-03 23:37 8.25989 133.97962 34906 ft 476 kts 104°
2026-05-03 23:37 8.24348 134.04436 34908 ft 476 kts 104°
2026-05-03 23:38 8.22706 134.10911 34909 ft 477 kts 104°
2026-05-03 23:38 8.21061 134.17392 34905 ft 476 kts 104°
2026-05-03 23:39 8.19415 134.23875 34907 ft 477 kts 104°
2026-05-03 23:39 8.17767 134.30361 34908 ft 478 kts 104°
2026-05-03 23:40 8.16117 134.36849 34908 ft 477 kts 104°
2026-05-03 23:40 8.14465 134.43338 34908 ft 477 kts 104°
2026-05-03 23:41 8.12824 134.49783 34912 ft 477 kts 104°
2026-05-03 23:41 8.11171 134.56271 34911 ft 478 kts 104°
2026-05-03 23:42 8.09512 134.62775 34904 ft 478 kts 104°
2026-05-03 23:42 8.07852 134.69277 34905 ft 478 kts 104°
2026-05-03 23:43 8.06193 134.75774 34909 ft 479 kts 104°
2026-05-03 23:43 8.04531 134.82280 34907 ft 479 kts 104°
2026-05-03 23:44 8.02868 134.88782 34908 ft 478 kts 104°
2026-05-03 23:44 8.01205 134.95281 34909 ft 479 kts 104°
2026-05-03 23:45 7.98924 135.01570 34904 ft 479 kts 117°
2026-05-03 23:45 7.95668 135.07445 34906 ft 480 kts 120°
2026-05-03 23:46 7.92230 135.13234 34909 ft 481 kts 120°
2026-05-03 23:46 7.88771 135.19008 34906 ft 481 kts 120°
2026-05-03 23:47 7.85332 135.24788 34905 ft 481 kts 120°
2026-05-03 23:47 7.81901 135.30578 34907 ft 481 kts 120°
2026-05-03 23:48 7.78465 135.36383 34908 ft 483 kts 120°
2026-05-03 23:48 7.75018 135.42204 34908 ft 483 kts 120°
2026-05-03 23:49 7.71569 135.48022 34907 ft 484 kts 120°
2026-05-03 23:49 7.68116 135.53845 34903 ft 484 kts 120°
2026-05-03 23:50 7.65246 135.58683 34904 ft 484 kts 120°
2026-05-03 23:50 7.61215 135.65476 34902 ft 483 kts 120°
2026-05-03 23:51 7.57765 135.71287 34906 ft 483 kts 120°
2026-05-03 23:51 7.54340 135.77056 34906 ft 483 kts 120°
2026-05-03 23:52 7.50887 135.82869 34907 ft 484 kts 120°
2026-05-03 23:52 7.47429 135.88687 34903 ft 484 kts 120°
2026-05-03 23:53 7.43970 135.94505 34899 ft 484 kts 120°
2026-05-03 23:53 7.40509 136.00322 34901 ft 484 kts 120°
2026-05-03 23:54 7.37048 136.06140 34904 ft 485 kts 120°
2026-05-03 23:54 7.33575 136.11975 34904 ft 486 kts 120°
2026-05-03 23:55 7.30097 136.17817 34902 ft 486 kts 120°
2026-05-03 23:55 7.26621 136.23650 34902 ft 485 kts 120°
2026-05-03 23:56 7.23154 136.29470 34902 ft 484 kts 120°
2026-05-03 23:56 7.19687 136.35285 34901 ft 484 kts 120°
2026-05-03 23:57 7.16219 136.41102 34898 ft 484 kts 120°
2026-05-03 23:57 7.12744 136.46926 34899 ft 487 kts 120°
2026-05-03 23:58 7.09244 136.52792 34894 ft 489 kts 120°
2026-05-03 23:58 7.05741 136.58659 34897 ft 489 kts 120°
2026-05-03 23:59 7.02244 136.64514 34898 ft 488 kts 120°
2026-05-03 23:59 6.98747 136.70368 34898 ft 488 kts 120°
2026-05-04 00:00 6.95842 136.75230 34900 ft 488 kts 120°
2026-05-04 00:00 6.92348 136.81074 34903 ft 487 kts 120°
2026-05-04 00:01 6.88296 136.87849 34898 ft 486 kts 120°
2026-05-04 00:01 6.84807 136.93682 34898 ft 486 kts 120°
2026-05-04 00:02 6.81881 136.98572 34897 ft 486 kts 120°
2026-05-04 00:02 6.78414 137.04364 34897 ft 486 kts 120°
2026-05-04 00:03 6.74929 137.10183 34897 ft 485 kts 120°
2026-05-04 00:03 6.71444 137.16002 34897 ft 485 kts 120°
2026-05-04 00:04 6.67956 137.21821 34899 ft 485 kts 120°
2026-05-04 00:04 6.64472 137.27633 34898 ft 485 kts 120°
2026-05-04 00:05 6.60987 137.33446 34896 ft 485 kts 120°
2026-05-04 00:05 6.57501 137.39257 34898 ft 485 kts 120°
2026-05-04 00:06 6.54007 137.45081 34897 ft 487 kts 120°
2026-05-04 00:06 6.50509 137.50907 34897 ft 487 kts 120°
2026-05-04 00:07 6.47011 137.56733 34898 ft 487 kts 120°
2026-05-04 00:07 6.43513 137.62556 34898 ft 486 kts 120°
2026-05-04 00:08 6.40017 137.68375 34897 ft 486 kts 120°
2026-05-04 00:08 6.36522 137.74191 34897 ft 486 kts 120°
2026-05-04 00:09 6.33025 137.80007 34897 ft 486 kts 120°
2026-05-04 00:09 6.29527 137.85823 34902 ft 486 kts 120°
2026-05-04 00:10 6.26031 137.91634 34903 ft 486 kts 120°
2026-05-04 00:10 6.22536 137.97442 34903 ft 486 kts 120°
2026-05-04 00:11 6.19042 138.03247 34898 ft 485 kts 120°
2026-05-04 00:11 6.15553 138.09039 34900 ft 484 kts 120°
2026-05-04 00:12 6.12090 138.14790 34904 ft 484 kts 120°
2026-05-04 00:12 6.08601 138.20579 34903 ft 484 kts 120°
2026-05-04 00:13 6.05118 138.26359 34902 ft 484 kts 120°
2026-05-04 00:13 6.01630 138.32145 34903 ft 484 kts 120°
2026-05-04 00:14 5.98142 138.37928 34903 ft 484 kts 120°
2026-05-04 00:14 5.94652 138.43712 34902 ft 484 kts 120°
2026-05-04 00:15 5.91165 138.49490 34905 ft 483 kts 120°
2026-05-04 00:15 5.87683 138.55260 34906 ft 483 kts 120°
2026-05-04 00:16 5.84199 138.61030 34904 ft 483 kts 120°
2026-05-04 00:16 5.80714 138.66800 34903 ft 483 kts 120°
2026-05-04 00:17 5.77231 138.72565 34905 ft 482 kts 120°
2026-05-04 00:17 5.73776 138.78282 34908 ft 482 kts 120°
2026-05-04 00:18 5.70298 138.84035 34905 ft 482 kts 120°
2026-05-04 00:18 5.66817 138.89791 34905 ft 482 kts 120°
2026-05-04 00:19 5.63343 138.95534 34906 ft 481 kts 120°
2026-05-04 00:19 5.59875 139.01267 34906 ft 481 kts 120°
2026-05-04 00:20 5.56401 139.07007 34905 ft 481 kts 120°
2026-05-04 00:20 5.52931 139.12739 34906 ft 480 kts 120°
2026-05-04 00:21 5.49469 139.18456 34908 ft 479 kts 120°
2026-05-04 00:21 5.46014 139.24161 34909 ft 479 kts 120°
2026-05-04 00:22 5.42547 139.29883 34909 ft 480 kts 120°
2026-05-04 00:22 5.39074 139.35614 34909 ft 480 kts 120°
2026-05-04 00:23 5.35603 139.41341 34908 ft 480 kts 120°
2026-05-04 00:23 5.32128 139.47071 34907 ft 480 kts 120°
2026-05-04 00:24 5.28654 139.52798 34913 ft 480 kts 120°
2026-05-04 00:24 5.25185 139.58517 34908 ft 479 kts 120°
2026-05-04 00:25 5.21719 139.64228 34907 ft 479 kts 120°
2026-05-04 00:25 5.18268 139.69914 34909 ft 481 kts 120°
2026-05-04 00:26 5.14784 139.75653 34907 ft 482 kts 120°
2026-05-04 00:26 5.11287 139.81411 34912 ft 484 kts 120°
2026-05-04 00:27 5.07784 139.87178 34911 ft 484 kts 120°
2026-05-04 00:27 5.04279 139.92946 34910 ft 484 kts 120°
2026-05-04 00:28 5.00763 139.98705 34910 ft 485 kts 122°
2026-05-04 00:28 4.96719 140.04142 34911 ft 487 kts 126°
2026-05-04 00:29 4.92503 140.09485 34911 ft 488 kts 127°
2026-05-04 00:29 4.88286 140.14766 34911 ft 488 kts 127°
2026-05-04 00:30 4.84044 140.20086 34911 ft 488 kts 127°
2026-05-04 00:30 4.79806 140.25414 34911 ft 488 kts 127°
2026-05-04 00:31 4.75571 140.30746 34912 ft 488 kts 127°
2026-05-04 00:31 4.71337 140.36075 34911 ft 489 kts 127°
2026-05-04 00:32 4.67105 140.41399 34911 ft 488 kts 127°
2026-05-04 00:32 4.62879 140.46714 34911 ft 486 kts 127°
2026-05-04 00:33 4.56602 140.54606 34911 ft 484 kts 127°
2026-05-04 00:34 4.52400 140.59888 34909 ft 484 kts 127°
2026-05-04 00:34 4.48200 140.65166 34912 ft 484 kts 127°
2026-05-04 00:35 4.44001 140.70442 34914 ft 483 kts 127°
2026-05-04 00:35 4.39809 140.75709 34914 ft 484 kts 127°
2026-05-04 00:36 4.35603 140.80992 34914 ft 485 kts 127°
2026-05-04 00:36 4.31391 140.86281 34914 ft 485 kts 127°
2026-05-04 00:37 4.27184 140.91563 34911 ft 484 kts 127°
2026-05-04 00:37 4.22991 140.96825 34912 ft 483 kts 127°
2026-05-04 00:38 4.18804 141.02080 34914 ft 483 kts 127°
2026-05-04 00:38 4.14617 141.07334 34911 ft 483 kts 127°
2026-05-04 00:39 4.10416 141.12605 34915 ft 484 kts 127°
2026-05-04 00:39 4.06227 141.17859 34913 ft 481 kts 127°
2026-05-04 00:40 4.02046 141.23101 34916 ft 481 kts 127°
2026-05-04 00:40 3.97900 141.28300 34914 ft 481 kts 127°
2026-05-04 00:41 3.93720 141.33540 34913 ft 481 kts 127°
2026-05-04 00:41 3.89543 141.38775 34914 ft 480 kts 127°
2026-05-04 00:42 3.85370 141.44005 34911 ft 481 kts 127°
2026-05-04 00:42 3.81190 141.49243 34911 ft 482 kts 127°
2026-05-04 00:43 3.76998 141.54495 34914 ft 482 kts 127°
2026-05-04 00:43 3.72807 141.59743 34914 ft 482 kts 127°
2026-05-04 00:44 3.68618 141.64989 34911 ft 482 kts 127°
2026-05-04 00:44 3.64432 141.70231 34910 ft 482 kts 127°
2026-05-04 00:45 3.60243 141.75475 34911 ft 482 kts 127°
2026-05-04 00:45 3.56050 141.80723 34912 ft 484 kts 127°
2026-05-04 00:46 3.51837 141.85996 34914 ft 485 kts 127°
2026-05-04 00:46 3.47623 141.91268 34914 ft 485 kts 127°
2026-05-04 00:47 3.43413 141.96535 34910 ft 485 kts 127°
2026-05-04 00:47 3.39227 142.01771 34911 ft 485 kts 127°
2026-05-04 00:48 3.35016 142.07038 34913 ft 484 kts 127°
2026-05-04 00:48 3.30805 142.12303 34911 ft 484 kts 127°
2026-05-04 00:49 3.27313 142.16670 34914 ft 484 kts 127°
2026-05-04 00:49 3.22396 142.22816 34914 ft 484 kts 127°
2026-05-04 00:50 3.18901 142.27186 34911 ft 484 kts 127°
2026-05-04 00:50 3.14699 142.32437 34911 ft 483 kts 127°
2026-05-04 00:51 3.10501 142.37683 34911 ft 482 kts 127°
2026-05-04 00:51 3.06310 142.42918 34909 ft 482 kts 127°
2026-05-04 00:52 3.02118 142.48156 34916 ft 482 kts 127°
2026-05-04 00:52 2.97916 142.53404 34915 ft 483 kts 127°
2026-05-04 00:53 2.93715 142.58651 34909 ft 483 kts 127°
2026-05-04 00:53 2.89508 142.63905 34911 ft 483 kts 127°
2026-05-04 00:54 2.85308 142.69148 34913 ft 483 kts 127°
2026-05-04 00:54 2.81139 142.74353 34912 ft 483 kts 127°
2026-05-04 00:55 2.76939 142.79596 34914 ft 483 kts 127°
2026-05-04 00:55 2.72743 142.84834 34911 ft 482 kts 127°
2026-05-04 00:56 2.68537 142.90082 34912 ft 485 kts 127°
2026-05-04 00:56 2.64313 142.95353 34911 ft 485 kts 127°
2026-05-04 00:57 2.60092 143.00619 34911 ft 485 kts 127°
2026-05-04 00:57 2.55872 143.05883 34912 ft 485 kts 127°
2026-05-04 00:58 2.51650 143.11150 34912 ft 485 kts 127°
2026-05-04 00:58 2.47427 143.16416 34912 ft 485 kts 127°
2026-05-04 00:59 2.43208 143.21678 34911 ft 485 kts 127°
2026-05-04 00:59 2.38983 143.26946 34913 ft 485 kts 127°
2026-05-04 01:00 2.34761 143.32209 34915 ft 485 kts 127°
2026-05-04 01:00 2.30537 143.37476 34914 ft 485 kts 127°
2026-05-04 01:01 2.26316 143.42738 34914 ft 485 kts 127°
2026-05-04 01:01 2.22092 143.48002 34900 ft 485 kts 127°
2026-05-04 01:02 2.17869 143.53265 34913 ft 485 kts 127°
2026-05-04 01:02 2.13676 143.58490 34913 ft 485 kts 127°
2026-05-04 01:03 2.09431 143.63780 34912 ft 484 kts 127°
2026-05-04 01:03 2.05242 143.68999 34911 ft 484 kts 127°
2026-05-04 01:04 2.01019 143.74260 34900 ft 484 kts 127°
2026-05-04 01:04 1.96803 143.79512 34917 ft 484 kts 127°
2026-05-04 01:05 1.92586 143.84765 34916 ft 484 kts 127°
2026-05-04 01:05 1.88367 143.90019 34916 ft 484 kts 127°
2026-05-04 01:06 1.84150 143.95271 34902 ft 484 kts 127°
2026-05-04 01:06 1.79937 144.00518 34916 ft 483 kts 127°
2026-05-04 01:07 1.75727 144.05759 34917 ft 483 kts 127°
2026-05-04 01:07 1.71521 144.10996 34901 ft 483 kts 127°
2026-05-04 01:08 1.67313 144.16235 34905 ft 483 kts 127°
2026-05-04 01:08 1.63132 144.21440 34905 ft 483 kts 127°
2026-05-04 01:09 1.58922 144.26680 34915 ft 483 kts 127°
2026-05-04 01:09 1.54713 144.31919 34916 ft 483 kts 127°
2026-05-04 01:10 1.50516 144.37143 34898 ft 481 kts 127°
2026-05-04 01:10 1.46327 144.42355 34904 ft 481 kts 127°
2026-05-04 01:11 1.42138 144.47568 34917 ft 481 kts 127°
2026-05-04 01:11 1.37949 144.52781 34917 ft 481 kts 127°
2026-05-04 01:12 1.33757 144.57996 34905 ft 481 kts 127°
2026-05-04 01:12 1.29568 144.63209 34901 ft 481 kts 127°
2026-05-04 01:13 1.25377 144.68423 34907 ft 481 kts 127°
2026-05-04 01:13 1.21190 144.73631 34917 ft 481 kts 127°
2026-05-04 01:14 1.17005 144.78837 34904 ft 480 kts 127°
2026-05-04 01:14 1.12827 144.84034 34903 ft 479 kts 127°
2026-05-04 01:15 1.08650 144.89229 34902 ft 479 kts 127°
2026-05-04 01:15 1.04506 144.94385 34918 ft 479 kts 127°
2026-05-04 01:16 1.00329 144.99576 34917 ft 479 kts 128°
2026-05-04 01:16 0.96007 145.04654 34902 ft 480 kts 129°
2026-05-04 01:17 0.91583 145.09659 34920 ft 480 kts 129°
2026-05-04 01:17 0.87168 145.14655 34903 ft 479 kts 129°
2026-05-04 01:18 0.82768 145.19663 34903 ft 479 kts 129°
2026-05-04 01:18 0.78375 145.24679 34916 ft 479 kts 129°
2026-05-04 01:19 0.73980 145.29699 34905 ft 479 kts 129°
2026-05-04 01:19 0.69593 145.34709 34920 ft 479 kts 129°
2026-05-04 01:20 0.65206 145.39719 34900 ft 479 kts 129°
2026-05-04 01:20 0.60819 145.44727 34897 ft 479 kts 129°
2026-05-04 01:21 0.56426 145.49742 34899 ft 479 kts 129°
2026-05-04 01:21 0.52034 145.54756 34901 ft 479 kts 129°
2026-05-04 01:22 0.47645 145.59766 34903 ft 479 kts 129°
2026-05-04 01:22 0.43260 145.64773 34907 ft 479 kts 129°
2026-05-04 01:23 0.38874 145.69780 34917 ft 479 kts 129°
2026-05-04 01:23 0.34515 145.74756 34901 ft 479 kts 129°
2026-05-04 01:24 0.30130 145.79762 34905 ft 479 kts 129°
2026-05-04 01:24 0.25736 145.84777 34907 ft 479 kts 129°
2026-05-04 01:25 0.21343 145.89793 34904 ft 480 kts 129°
2026-05-04 01:25 0.16952 145.94805 34904 ft 479 kts 129°
2026-05-04 01:26 0.12557 145.99821 34901 ft 479 kts 129°
2026-05-04 01:26 0.08168 146.04832 34904 ft 479 kts 129°
2026-05-04 01:27 0.03774 146.09848 34907 ft 480 kts 129°
2026-05-04 01:27 -0.00971 146.14538 34907 ft 483 kts 141°
2026-05-04 01:28 -0.06545 146.18308 34921 ft 485 kts 145°
2026-05-04 01:28 -0.12277 146.21877 34904 ft 485 kts 146°
2026-05-04 01:29 -0.18029 146.25413 34905 ft 485 kts 146°
2026-05-04 01:29 -0.23771 146.28966 34918 ft 485 kts 146°
2026-05-04 01:30 -0.29502 146.32533 34903 ft 485 kts 146°
2026-05-04 01:30 -0.35233 146.36105 34905 ft 485 kts 146°
2026-05-04 01:31 -0.40956 146.39671 34906 ft 485 kts 146°
2026-05-04 01:31 -0.46683 146.43239 34906 ft 485 kts 146°
2026-05-04 01:32 -0.52404 146.46804 34905 ft 485 kts 146°
2026-05-04 01:32 -0.58087 146.50345 34903 ft 485 kts 146°
2026-05-04 01:33 -0.63809 146.53909 34917 ft 485 kts 146°
2026-05-04 01:33 -0.69531 146.57475 34903 ft 484 kts 147°
2026-05-04 01:34 -0.75248 146.61037 34904 ft 484 kts 147°
2026-05-04 01:34 -0.80961 146.64597 34920 ft 484 kts 147°
2026-05-04 01:35 -0.86681 146.68161 34904 ft 484 kts 147°
2026-05-04 01:35 -0.91434 146.71123 34901 ft 484 kts 147°
2026-05-04 01:36 -0.97149 146.74684 34907 ft 484 kts 147°
2026-05-04 01:36 -1.02868 146.78248 34911 ft 485 kts 147°
2026-05-04 01:37 -1.08596 146.81818 34906 ft 485 kts 147°
2026-05-04 01:37 -1.14321 146.85386 34907 ft 485 kts 147°
2026-05-04 01:38 -1.20035 146.88947 34907 ft 484 kts 147°
2026-05-04 01:38 -1.25748 146.92509 34907 ft 484 kts 147°
2026-05-04 01:39 -1.31458 146.96068 34909 ft 484 kts 147°
2026-05-04 01:39 -1.37173 146.99631 34909 ft 484 kts 147°
2026-05-04 01:40 -1.42890 147.03194 34904 ft 484 kts 147°
2026-05-04 01:40 -1.48607 147.06759 34901 ft 484 kts 147°
2026-05-04 01:41 -1.54290 147.10302 34902 ft 484 kts 147°
2026-05-04 01:41 -1.60003 147.13864 34901 ft 484 kts 147°
2026-05-04 01:42 -1.65716 147.17427 34901 ft 484 kts 147°
2026-05-04 01:42 -1.71437 147.20994 34907 ft 485 kts 147°
2026-05-04 01:43 -1.77158 147.24562 34904 ft 485 kts 147°
2026-05-04 01:43 -1.82878 147.28130 34908 ft 485 kts 147°
2026-05-04 01:44 -1.88601 147.31700 34901 ft 485 kts 147°
2026-05-04 01:44 -1.94331 147.35274 34908 ft 485 kts 147°
2026-05-04 01:45 -2.00054 147.38845 34904 ft 485 kts 147°
2026-05-04 01:45 -2.07999 147.45001 34903 ft 482 kts 132°
2026-05-04 01:46 -2.12394 147.50069 34898 ft 483 kts 129°
2026-05-04 01:46 -2.16651 147.55264 34898 ft 483 kts 129°
2026-05-04 01:47 -2.20898 147.60467 34899 ft 483 kts 129°
2026-05-04 01:47 -2.25165 147.65657 34914 ft 483 kts 129°
2026-05-04 01:48 -2.29440 147.70836 34913 ft 483 kts 129°
2026-05-04 01:48 -2.33724 147.76022 34899 ft 484 kts 129°
2026-05-04 01:49 -2.38006 147.81206 34898 ft 484 kts 129°
2026-05-04 01:49 -2.42295 147.86401 34912 ft 484 kts 129°
2026-05-04 01:50 -2.46547 147.91552 34901 ft 484 kts 129°
2026-05-04 01:50 -2.50831 147.96743 34906 ft 484 kts 129°
2026-05-04 01:51 -2.55114 148.01933 34903 ft 484 kts 129°
2026-05-04 01:51 -2.59400 148.07127 34910 ft 484 kts 129°
2026-05-04 01:52 -2.63689 148.12326 34898 ft 485 kts 129°
2026-05-04 01:52 -2.67986 148.17534 34902 ft 485 kts 129°
2026-05-04 01:53 -2.72283 148.22743 34901 ft 485 kts 129°
2026-05-04 01:53 -2.76577 148.27949 34898 ft 485 kts 129°
2026-05-04 01:54 -2.80871 148.33157 34904 ft 485 kts 129°
2026-05-04 01:54 -2.85166 148.38365 34910 ft 485 kts 129°
2026-05-04 01:55 -2.89459 148.43573 34901 ft 485 kts 129°
2026-05-04 01:55 -2.93753 148.48782 34894 ft 485 kts 129°
2026-05-04 01:56 -2.98023 148.53962 34900 ft 486 kts 129°
2026-05-04 01:56 -3.02323 148.59180 34893 ft 486 kts 129°
2026-05-04 01:57 -3.06623 148.64398 34898 ft 486 kts 129°
2026-05-04 01:57 -3.10921 148.69615 34911 ft 486 kts 129°
2026-05-04 01:58 -3.15219 148.74832 34893 ft 486 kts 129°
2026-05-04 01:58 -3.19519 148.80053 34894 ft 486 kts 129°
2026-05-04 01:59 -3.23819 148.85274 34895 ft 486 kts 129°
2026-05-04 01:59 -3.28118 148.90495 34900 ft 486 kts 129°
2026-05-04 02:00 -3.32421 148.95721 34895 ft 486 kts 128°
2026-05-04 02:00 -3.36724 149.00949 34912 ft 486 kts 128°
2026-05-04 02:01 -3.41024 149.06174 34898 ft 486 kts 129°
2026-05-04 02:01 -3.45327 149.11402 34896 ft 486 kts 129°
2026-05-04 02:02 -3.49628 149.16629 34896 ft 486 kts 129°
2026-05-04 02:02 -3.53900 149.21822 34896 ft 486 kts 129°
2026-05-04 02:03 -3.58198 149.27048 34902 ft 486 kts 129°
2026-05-04 02:03 -3.62501 149.32280 34896 ft 487 kts 128°
2026-05-04 02:04 -3.66808 149.37519 34895 ft 488 kts 128°
2026-05-04 02:04 -3.71121 149.42765 34893 ft 488 kts 128°
2026-05-04 02:05 -3.75435 149.48013 34891 ft 488 kts 128°
2026-05-04 02:05 -3.79747 149.53259 34888 ft 488 kts 128°
2026-05-04 02:06 -3.84059 149.58508 34891 ft 488 kts 128°
2026-05-04 02:06 -3.88368 149.63752 34891 ft 487 kts 128°
2026-05-04 02:07 -3.92676 149.68997 34891 ft 487 kts 128°
2026-05-04 02:07 -3.96950 149.74200 34890 ft 487 kts 128°
2026-05-04 02:08 -4.01257 149.79446 34899 ft 488 kts 128°
2026-05-04 02:08 -4.05566 149.84695 34890 ft 488 kts 128°
2026-05-04 02:09 -4.09875 149.89945 34888 ft 488 kts 128°
2026-05-04 02:09 -4.14185 149.95197 34888 ft 488 kts 128°
2026-05-04 02:10 -4.18494 150.00449 34892 ft 488 kts 128°
2026-05-04 02:10 -4.22800 150.05698 34890 ft 488 kts 128°
2026-05-04 02:11 -4.27107 150.10949 34885 ft 488 kts 128°
2026-05-04 02:11 -4.31414 150.16201 34887 ft 488 kts 128°
2026-05-04 02:12 -4.35724 150.21458 34888 ft 488 kts 128°
2026-05-04 02:12 -4.40031 150.26713 34888 ft 487 kts 128°
2026-05-04 02:13 -4.44305 150.31927 34883 ft 487 kts 128°
2026-05-04 02:13 -4.48606 150.37177 34882 ft 487 kts 128°
2026-05-04 02:14 -4.52909 150.42429 34883 ft 487 kts 128°
2026-05-04 02:14 -4.57207 150.47678 34886 ft 487 kts 128°
2026-05-04 02:15 -4.61506 150.52927 34885 ft 486 kts 128°
2026-05-04 02:15 -4.65801 150.58173 34882 ft 486 kts 128°
2026-05-04 02:16 -4.70092 150.63416 34882 ft 487 kts 128°
2026-05-04 02:16 -4.74385 150.68662 34880 ft 487 kts 128°
2026-05-04 02:17 -4.78683 150.73916 34880 ft 487 kts 128°
2026-05-04 02:17 -4.82975 150.79163 34877 ft 487 kts 128°
2026-05-04 02:18 -4.87242 150.84380 34876 ft 487 kts 128°
2026-05-04 02:18 -4.91537 150.89633 34879 ft 487 kts 128°
2026-05-04 02:19 -4.95829 150.94884 34877 ft 487 kts 128°
2026-05-04 02:19 -5.00122 151.00132 34889 ft 487 kts 129°
2026-05-04 02:20 -5.04489 151.05336 34881 ft 488 kts 129°
2026-05-04 02:20 -5.08892 151.10517 34897 ft 488 kts 129°
2026-05-04 02:21 -5.13288 151.15695 34896 ft 487 kts 129°
2026-05-04 02:21 -5.17681 151.20883 34894 ft 487 kts 129°
2026-05-04 02:22 -5.22066 151.26070 34917 ft 487 kts 129°
2026-05-04 02:22 -5.25709 151.30379 34918 ft 487 kts 129°
2026-05-04 02:23 -5.30092 151.35565 34919 ft 487 kts 129°
2026-05-04 02:23 -5.35216 151.41628 34924 ft 487 kts 129°
2026-05-04 02:24 -5.38863 151.45946 34919 ft 488 kts 129°
2026-05-04 02:24 -5.43255 151.51146 34918 ft 488 kts 129°
2026-05-04 02:25 -5.47646 151.56346 34915 ft 488 kts 129°
2026-05-04 02:25 -5.52035 151.61546 34898 ft 488 kts 129°
2026-05-04 02:26 -5.56425 151.66746 34896 ft 488 kts 129°
2026-05-04 02:26 -5.60816 151.71950 34888 ft 488 kts 129°
2026-05-04 02:27 -5.65204 151.77152 34881 ft 488 kts 129°
2026-05-04 02:27 -5.69595 151.82359 34874 ft 488 kts 129°
2026-05-04 02:28 -5.73983 151.87563 34877 ft 489 kts 129°
2026-05-04 02:28 -5.78376 151.92775 34874 ft 489 kts 129°
2026-05-04 02:29 -5.82769 151.97988 34877 ft 489 kts 129°
2026-05-04 02:29 -5.87156 152.03195 34874 ft 488 kts 130°
2026-05-04 02:30 -5.91514 152.08370 34872 ft 488 kts 129°
2026-05-04 02:30 -5.95899 152.13577 34874 ft 488 kts 130°
2026-05-04 02:31 -6.00286 152.18789 34872 ft 488 kts 129°
2026-05-04 02:31 -6.04670 152.23998 34872 ft 488 kts 130°
2026-05-04 02:32 -6.09055 152.29211 34872 ft 488 kts 130°
2026-05-04 02:32 -6.13435 152.34418 34874 ft 488 kts 130°
2026-05-04 02:33 -6.17815 152.39627 34870 ft 488 kts 130°
2026-05-04 02:33 -6.22201 152.44844 34871 ft 488 kts 129°
2026-05-04 02:34 -6.26585 152.50061 34876 ft 488 kts 130°
2026-05-04 02:34 -6.30963 152.55273 34868 ft 488 kts 129°
2026-05-04 02:35 -6.35328 152.60470 34869 ft 487 kts 129°
2026-05-04 02:35 -6.39701 152.65677 34869 ft 487 kts 130°
2026-05-04 02:36 -6.44069 152.70881 34867 ft 487 kts 130°
2026-05-04 02:36 -6.48442 152.76092 34866 ft 487 kts 130°
2026-05-04 02:37 -6.52810 152.81298 34866 ft 487 kts 129°
2026-05-04 02:37 -6.57177 152.86506 34868 ft 487 kts 129°
2026-05-04 02:38 -6.61543 152.91714 34867 ft 486 kts 129°
2026-05-04 02:38 -6.65903 152.96915 34866 ft 486 kts 129°
2026-05-04 02:39 -6.70266 153.02123 34864 ft 486 kts 130°
2026-05-04 02:39 -6.74597 153.07293 34866 ft 487 kts 129°
2026-05-04 02:40 -6.78960 153.12502 34861 ft 486 kts 130°
2026-05-04 02:40 -6.83316 153.17707 34860 ft 486 kts 130°
2026-05-04 02:41 -6.87669 153.22907 34862 ft 486 kts 130°
2026-05-04 02:41 -6.92021 153.28109 34862 ft 486 kts 129°
2026-05-04 02:42 -6.96371 153.33311 34862 ft 486 kts 130°
2026-05-04 02:42 -7.00720 153.38511 34861 ft 485 kts 129°
2026-05-04 02:43 -7.05070 153.43716 34858 ft 485 kts 130°
2026-05-04 02:43 -7.09415 153.48918 34862 ft 485 kts 130°
2026-05-04 02:44 -7.13763 153.54122 34870 ft 486 kts 130°
2026-05-04 02:44 -7.18117 153.59337 34861 ft 487 kts 130°
2026-05-04 02:45 -7.22454 153.64533 34860 ft 488 kts 130°
2026-05-04 02:45 -7.26817 153.69761 34858 ft 487 kts 130°
2026-05-04 02:46 -7.31173 153.74983 34858 ft 488 kts 130°
2026-05-04 02:46 -7.35543 153.80223 34858 ft 488 kts 130°
2026-05-04 02:47 -7.39913 153.85465 34864 ft 488 kts 130°
2026-05-04 02:47 -7.44280 153.90704 34863 ft 488 kts 130°
2026-05-04 02:48 -7.48651 153.95952 34858 ft 489 kts 130°
2026-05-04 02:48 -7.53022 154.01200 34860 ft 490 kts 130°
2026-05-04 02:49 -7.57404 154.06463 34859 ft 490 kts 131°
2026-05-04 02:49 -7.61788 154.11732 34858 ft 491 kts 130°
2026-05-04 02:50 -7.66145 154.16969 34857 ft 490 kts 130°
2026-05-04 02:50 -7.70525 154.22236 34855 ft 490 kts 130°
2026-05-04 02:51 -7.74903 154.27502 34857 ft 489 kts 130°
2026-05-04 02:51 -7.79282 154.32772 34855 ft 491 kts 130°
2026-05-04 02:52 -7.83669 154.38052 34855 ft 491 kts 130°
2026-05-04 02:52 -7.88046 154.43324 34856 ft 490 kts 131°
2026-05-04 02:53 -7.92420 154.48593 34855 ft 490 kts 131°
2026-05-04 02:53 -7.96804 154.53875 34855 ft 490 kts 131°
2026-05-04 02:54 -8.01183 154.59153 34857 ft 490 kts 131°
2026-05-04 02:54 -8.05528 154.64393 34855 ft 490 kts 130°
2026-05-04 02:55 -8.12086 154.72306 34860 ft 489 kts 131°
2026-05-04 02:56 -8.16450 154.77573 34855 ft 489 kts 131°
2026-05-04 02:56 -8.20816 154.82845 34856 ft 489 kts 131°
2026-05-04 02:57 -8.25178 154.88115 34857 ft 489 kts 131°
2026-05-04 02:57 -8.29538 154.93384 34859 ft 488 kts 131°
2026-05-04 02:58 -8.33893 154.98649 34858 ft 488 kts 131°
2026-05-04 02:58 -8.38250 155.03904 34852 ft 488 kts 131°
2026-05-04 02:59 -8.42591 155.09125 34857 ft 488 kts 131°
2026-05-04 02:59 -8.46959 155.14378 34855 ft 488 kts 131°
2026-05-04 03:00 -8.51323 155.19633 34859 ft 488 kts 131°
2026-05-04 03:00 -8.55689 155.24893 34855 ft 488 kts 131°
2026-05-04 03:01 -8.60056 155.30156 34856 ft 488 kts 131°
2026-05-04 03:01 -8.64416 155.35414 34854 ft 488 kts 131°
2026-05-04 03:02 -8.68776 155.40672 34853 ft 487 kts 131°
2026-05-04 03:02 -8.73129 155.45925 34853 ft 487 kts 131°
2026-05-04 03:03 -8.77483 155.51181 34852 ft 487 kts 131°
2026-05-04 03:03 -8.81834 155.56435 34854 ft 487 kts 131°
2026-05-04 03:04 -8.86184 155.61691 34853 ft 487 kts 131°
2026-05-04 03:04 -8.90535 155.66950 34854 ft 487 kts 131°
2026-05-04 03:05 -8.94882 155.72205 34853 ft 487 kts 131°
2026-05-04 03:05 -8.99205 155.77434 34855 ft 488 kts 131°
2026-05-04 03:06 -9.03559 155.82702 34855 ft 489 kts 131°
2026-05-04 03:06 -9.07922 155.87984 34849 ft 489 kts 131°
2026-05-04 03:07 -9.12283 155.93266 34849 ft 489 kts 131°
2026-05-04 03:07 -9.16644 155.98550 34849 ft 489 kts 131°
2026-05-04 03:08 -9.21010 156.03841 34852 ft 489 kts 131°
2026-05-04 03:08 -9.25367 156.09125 34849 ft 489 kts 131°
2026-05-04 03:09 -9.29728 156.14416 34849 ft 489 kts 131°
2026-05-04 03:09 -9.33350 156.18811 34854 ft 489 kts 131°
2026-05-04 03:10 -9.38446 156.24999 34850 ft 490 kts 131°
2026-05-04 03:10 -9.42083 156.29416 34854 ft 491 kts 131°
2026-05-04 03:11 -9.47171 156.35599 34851 ft 491 kts 131°
2026-05-04 03:11 -9.50838 156.40057 34852 ft 491 kts 131°
2026-05-04 03:12 -9.55210 156.45374 34848 ft 491 kts 131°
2026-05-04 03:12 -9.59538 156.50641 34848 ft 489 kts 131°
2026-05-04 03:13 -9.63924 156.55980 34848 ft 489 kts 131°
2026-05-04 03:13 -9.68248 156.61245 34848 ft 489 kts 131°
2026-05-04 03:14 -9.72606 156.66555 34848 ft 489 kts 131°
2026-05-04 03:14 -9.76965 156.71869 34848 ft 491 kts 131°
2026-05-04 03:15 -9.81333 156.77195 34848 ft 491 kts 131°
2026-05-04 03:15 -9.85699 156.82522 34848 ft 491 kts 131°
2026-05-04 03:16 -9.90068 156.87855 34849 ft 491 kts 131°
2026-05-04 03:16 -9.94435 156.93188 34849 ft 491 kts 131°
2026-05-04 03:17 -9.98904 156.98430 34848 ft 490 kts 137°
2026-05-04 03:17 -10.04342 157.02535 34848 ft 487 kts 149°
2026-05-04 03:18 -10.10171 157.06055 34848 ft 488 kts 152°
2026-05-04 03:18 -10.16066 157.09464 34848 ft 488 kts 152°
2026-05-04 03:19 -10.21961 157.12883 34849 ft 488 kts 152°
2026-05-04 03:19 -10.27839 157.16322 34848 ft 488 kts 151°
2026-05-04 03:20 -10.33711 157.19771 34848 ft 488 kts 151°
2026-05-04 03:20 -10.39549 157.23205 34848 ft 488 kts 151°
2026-05-04 03:21 -10.45427 157.26662 34850 ft 488 kts 152°
2026-05-04 03:21 -10.51319 157.30127 34848 ft 489 kts 152°
2026-05-04 03:22 -10.57215 157.33597 34848 ft 490 kts 152°
2026-05-04 03:22 -10.63108 157.37067 34848 ft 489 kts 152°
2026-05-04 03:23 -10.68998 157.40536 34848 ft 489 kts 152°
2026-05-04 03:23 -10.74898 157.44013 34848 ft 490 kts 152°
2026-05-04 03:24 -10.80791 157.47487 34854 ft 490 kts 152°
2026-05-04 03:24 -10.86686 157.50964 34848 ft 490 kts 152°
2026-05-04 03:25 -10.92592 157.54449 34848 ft 490 kts 152°
2026-05-04 03:25 -10.98459 157.57912 34849 ft 491 kts 152°
2026-05-04 03:26 -11.04365 157.61401 34850 ft 491 kts 152°
2026-05-04 03:26 -11.10276 157.64894 34851 ft 491 kts 152°
2026-05-04 03:27 -11.16183 157.68386 34848 ft 491 kts 152°
2026-05-04 03:27 -11.22085 157.71877 34852 ft 490 kts 152°
2026-05-04 03:28 -11.27988 157.75370 34850 ft 490 kts 152°
2026-05-04 03:28 -11.33889 157.78864 34850 ft 490 kts 152°
2026-05-04 03:29 -11.39790 157.82359 34850 ft 490 kts 152°
2026-05-04 03:29 -11.45690 157.85855 34850 ft 490 kts 152°
2026-05-04 03:30 -11.51586 157.89352 34850 ft 491 kts 152°
2026-05-04 03:30 -11.57485 157.92851 34851 ft 491 kts 152°
2026-05-04 03:31 -11.63348 157.96330 34853 ft 490 kts 152°
2026-05-04 03:31 -11.69245 157.99832 34851 ft 491 kts 152°
2026-05-04 03:32 -11.75143 158.03336 34851 ft 491 kts 152°
2026-05-04 03:32 -11.81044 158.06843 34851 ft 490 kts 152°
2026-05-04 03:33 -11.86939 158.10349 34849 ft 490 kts 152°
2026-05-04 03:33 -11.92829 158.13853 34851 ft 490 kts 152°
2026-05-04 03:34 -11.98711 158.17355 34851 ft 489 kts 152°
2026-05-04 03:34 -12.04595 158.20859 34854 ft 489 kts 152°
2026-05-04 03:35 -12.10480 158.24366 34849 ft 489 kts 152°
2026-05-04 03:35 -12.16360 158.27872 34851 ft 489 kts 152°
2026-05-04 03:36 -12.22240 158.31379 34851 ft 489 kts 152°
2026-05-04 03:36 -12.28111 158.34884 34851 ft 488 kts 153°
2026-05-04 03:37 -12.33959 158.38376 34854 ft 487 kts 153°
2026-05-04 03:37 -12.39809 158.41870 34854 ft 487 kts 153°
2026-05-04 03:38 -12.45660 158.45367 34855 ft 487 kts 152°
2026-05-04 03:38 -12.51470 158.48842 34854 ft 487 kts 152°
2026-05-04 03:39 -12.57322 158.52344 34855 ft 487 kts 152°
2026-05-04 03:39 -12.63170 158.55845 34856 ft 486 kts 152°
2026-05-04 03:40 -12.69008 158.59342 34853 ft 486 kts 152°
2026-05-04 03:40 -12.74842 158.62839 34857 ft 486 kts 152°
2026-05-04 03:41 -12.80674 158.66336 34858 ft 486 kts 152°
2026-05-04 03:41 -12.86513 158.69839 34856 ft 486 kts 152°
2026-05-04 03:42 -12.92345 158.73340 34856 ft 486 kts 152°
2026-05-04 03:42 -12.98177 158.76843 34856 ft 486 kts 152°
2026-05-04 03:43 -13.04006 158.80346 34854 ft 485 kts 152°
2026-05-04 03:43 -13.09838 158.83853 34857 ft 486 kts 152°
2026-05-04 03:44 -13.15663 158.87358 34854 ft 486 kts 152°
2026-05-04 03:44 -13.21450 158.90841 34856 ft 485 kts 152°
2026-05-04 03:45 -13.27269 158.94346 34861 ft 485 kts 152°
2026-05-04 03:45 -13.33087 158.97852 34864 ft 485 kts 152°
2026-05-04 03:46 -13.38900 159.01358 34859 ft 484 kts 152°
2026-05-04 03:46 -13.44717 159.04868 34858 ft 484 kts 152°
2026-05-04 03:47 -13.50530 159.08376 34859 ft 484 kts 152°
2026-05-04 03:47 -13.56334 159.11882 34858 ft 484 kts 152°
2026-05-04 03:48 -13.62138 159.15390 34861 ft 484 kts 152°
2026-05-04 03:48 -13.67943 159.18900 34857 ft 484 kts 152°
2026-05-04 03:49 -13.73749 159.22414 34862 ft 484 kts 152°
2026-05-04 03:49 -13.79547 159.25924 34858 ft 484 kts 152°
2026-05-04 03:50 -13.85344 159.29436 34857 ft 484 kts 152°
2026-05-04 03:50 -13.91141 159.32949 34860 ft 484 kts 152°
2026-05-04 03:51 -13.96936 159.36464 34859 ft 484 kts 152°
2026-05-04 03:51 -14.02693 159.39968 34863 ft 484 kts 152°
2026-05-04 03:52 -14.08480 159.43520 34863 ft 483 kts 152°
2026-05-04 03:52 -14.14243 159.47064 34862 ft 483 kts 152°
2026-05-04 03:53 -14.20011 159.50611 34863 ft 483 kts 152°
2026-05-04 03:53 -14.25778 159.54157 34865 ft 482 kts 152°
2026-05-04 03:54 -14.31540 159.57702 34863 ft 482 kts 152°
2026-05-04 03:54 -14.37297 159.61247 34866 ft 482 kts 152°
2026-05-04 03:55 -14.43051 159.64791 34862 ft 481 kts 152°
2026-05-04 03:55 -14.48794 159.68331 34864 ft 481 kts 152°
2026-05-04 03:56 -14.54504 159.71853 34863 ft 481 kts 152°
2026-05-04 03:56 -14.60248 159.75397 34864 ft 481 kts 152°
2026-05-04 03:57 -14.65991 159.78944 34865 ft 481 kts 152°
2026-05-04 03:57 -14.70802 159.81916 34865 ft 481 kts 152°
2026-05-04 03:58 -14.80341 159.87815 34868 ft 480 kts 153°
2026-05-04 03:58 -14.85137 159.90783 34868 ft 479 kts 153°
2026-05-04 03:59 -14.91783 159.94898 34868 ft 479 kts 153°
2026-05-04 03:59 -14.96582 159.97872 34867 ft 479 kts 153°
2026-05-04 04:00 -15.02330 160.01367 34872 ft 479 kts 154°
2026-05-04 04:00 -15.08156 160.04682 34877 ft 478 kts 155°
2026-05-04 04:01 -15.14006 160.07964 34872 ft 478 kts 155°
2026-05-04 04:01 -15.19836 160.11255 34870 ft 478 kts 155°
2026-05-04 04:02 -15.25630 160.14544 34869 ft 478 kts 155°
2026-05-04 04:02 -15.31458 160.17862 34872 ft 478 kts 155°
2026-05-04 04:03 -15.37282 160.21178 34871 ft 478 kts 155°
2026-05-04 04:03 -15.43102 160.24494 34875 ft 477 kts 155°
2026-05-04 04:04 -15.48917 160.27810 34874 ft 477 kts 155°
2026-05-04 04:04 -15.54728 160.31124 34875 ft 477 kts 155°
2026-05-04 04:05 -15.60536 160.34439 34874 ft 477 kts 155°
2026-05-04 04:05 -15.66341 160.37754 34878 ft 476 kts 155°
2026-05-04 04:06 -15.72162 160.41081 34876 ft 476 kts 155°
2026-05-04 04:06 -15.77929 160.44379 34877 ft 476 kts 155°
2026-05-04 04:07 -15.83733 160.47701 34883 ft 476 kts 155°
2026-05-04 04:07 -15.89541 160.51026 34881 ft 476 kts 155°
2026-05-04 04:08 -15.95344 160.54352 34888 ft 476 kts 155°
2026-05-04 04:08 -16.01142 160.57677 34891 ft 476 kts 155°
2026-05-04 04:09 -16.06941 160.61004 34888 ft 476 kts 155°
2026-05-04 04:09 -16.12739 160.64333 34887 ft 476 kts 155°
2026-05-04 04:10 -16.18529 160.67660 34883 ft 476 kts 155°
2026-05-04 04:10 -16.24320 160.70989 34885 ft 476 kts 155°
2026-05-04 04:11 -16.30113 160.74322 34883 ft 475 kts 155°
2026-05-04 04:11 -16.35902 160.77655 34883 ft 476 kts 155°
2026-05-04 04:12 -16.41690 160.80990 34882 ft 476 kts 155°
2026-05-04 04:12 -16.47486 160.84331 34891 ft 476 kts 155°
2026-05-04 04:13 -16.53239 160.87650 34889 ft 475 kts 155°
2026-05-04 04:13 -16.59015 160.90986 34890 ft 474 kts 156°
2026-05-04 04:14 -16.64784 160.94319 34888 ft 474 kts 156°
2026-05-04 04:14 -16.70550 160.97652 34891 ft 474 kts 156°
2026-05-04 04:15 -16.76322 161.00991 34889 ft 474 kts 156°
2026-05-04 04:15 -16.82087 161.04328 34888 ft 474 kts 156°
2026-05-04 04:16 -16.87859 161.07672 34892 ft 474 kts 156°
2026-05-04 04:16 -16.93619 161.11012 34892 ft 474 kts 156°
2026-05-04 04:17 -16.99382 161.14355 34892 ft 474 kts 156°
2026-05-04 04:17 -17.05143 161.17700 34892 ft 474 kts 156°
2026-05-04 04:18 -17.10901 161.21044 34892 ft 474 kts 156°
2026-05-04 04:18 -17.16625 161.24373 34893 ft 473 kts 156°
2026-05-04 04:19 -17.22372 161.27717 34894 ft 472 kts 156°
2026-05-04 04:19 -17.28114 161.31060 34895 ft 472 kts 156°
2026-05-04 04:20 -17.33856 161.34405 34894 ft 473 kts 156°
2026-05-04 04:20 -17.39597 161.37752 34895 ft 473 kts 156°
2026-05-04 04:21 -17.45344 161.41106 34894 ft 473 kts 156°
2026-05-04 04:21 -17.51089 161.44460 34894 ft 473 kts 156°
2026-05-04 04:22 -17.56828 161.47814 34899 ft 472 kts 156°
2026-05-04 04:22 -17.62555 161.51164 34897 ft 471 kts 156°
2026-05-04 04:23 -17.68277 161.54512 34896 ft 471 kts 156°
2026-05-04 04:23 -17.74006 161.57866 34901 ft 471 kts 156°
2026-05-04 04:24 -17.79733 161.61223 34899 ft 471 kts 156°
2026-05-04 04:24 -17.85454 161.64579 34900 ft 471 kts 156°
2026-05-04 04:25 -17.91169 161.67933 34903 ft 471 kts 156°
2026-05-04 04:25 -17.96886 161.71291 34899 ft 471 kts 156°
2026-05-04 04:26 -18.02605 161.74653 34902 ft 471 kts 156°
2026-05-04 04:26 -18.08317 161.78013 34899 ft 471 kts 156°
2026-05-04 04:27 -18.14033 161.81377 34904 ft 471 kts 156°
2026-05-04 04:27 -18.19746 161.84743 34895 ft 471 kts 156°
2026-05-04 04:28 -18.25458 161.88111 34910 ft 471 kts 156°
2026-05-04 04:28 -18.31161 161.91477 34907 ft 470 kts 156°
2026-05-04 04:29 -18.36873 161.94850 34905 ft 470 kts 156°
2026-05-04 04:29 -18.42579 161.98221 34908 ft 470 kts 156°
2026-05-04 04:30 -18.48246 162.01573 34901 ft 470 kts 156°
2026-05-04 04:30 -18.53954 162.04951 34913 ft 470 kts 156°
2026-05-04 04:31 -18.59655 162.08328 34909 ft 470 kts 156°
2026-05-04 04:31 -18.65355 162.11706 34906 ft 470 kts 156°
2026-05-04 04:32 -18.71041 162.15080 34898 ft 470 kts 156°
2026-05-04 04:32 -18.76740 162.18463 34908 ft 470 kts 156°
2026-05-04 04:33 -18.82433 162.21845 34902 ft 470 kts 156°
2026-05-04 04:33 -18.88128 162.25231 34913 ft 470 kts 156°
2026-05-04 04:34 -18.93816 162.28617 34910 ft 469 kts 156°
2026-05-04 04:34 -18.99496 162.32000 34901 ft 469 kts 156°
2026-05-04 04:35 -19.05174 162.35384 34917 ft 469 kts 156°
2026-05-04 04:35 -19.10851 162.38770 34915 ft 469 kts 156°
2026-05-04 04:36 -19.16534 162.42163 34914 ft 469 kts 156°
2026-05-04 04:36 -19.22202 162.45549 34914 ft 469 kts 156°
2026-05-04 04:37 -19.33534 162.52327 34912 ft 469 kts 156°
2026-05-04 04:38 -19.38261 162.55158 34914 ft 469 kts 156°
2026-05-04 04:38 -19.44897 162.59135 34915 ft 469 kts 156°
2026-05-04 04:39 -19.50575 162.62541 34915 ft 469 kts 156°
2026-05-04 04:39 -19.56248 162.65947 34913 ft 468 kts 156°
2026-05-04 04:40 -19.61917 162.69354 34928 ft 468 kts 156°
2026-05-04 04:40 -19.67588 162.72763 34917 ft 469 kts 156°
2026-05-04 04:41 -19.73258 162.76176 34917 ft 469 kts 156°
2026-05-04 04:41 -19.78929 162.79592 34917 ft 469 kts 156°
2026-05-04 04:42 -19.84345 162.82856 34919 ft 469 kts 156°